GW2364 Weather Reports


Display with metric or nautical units.
time (UTC)temp
F
wind
direction
speed
MPH
gust
MPH
rain 1hr
in
rain 24hr
in
rain mn
in
humidity
%
barometer
mb
20240222014510 68 23 4.0 15.0 0.00 0.00 0.00 76 1011.4
20240222013006 69 42 4.0 15.0 0.00 0.00 0.00 74 1011.2
20240222011506 69 351 2.0 13.0 0.00 0.00 0.00 72 1011.5
20240222010008 70 103 2.0 11.0 0.00 0.00 0.00 72 1011.9
20240222004506 70 26 3.0 9.0 0.00 0.00 0.00 71 1012.1
20240222003007 71 344 2.0 5.0 0.00 0.00 0.00 68 1012.3
20240222001506 72 236 1.0 9.0 0.00 0.00 0.00 67 1012.5
20240222000011 73 48 2.0 9.0 0.00 0.00 0.00 66 1012.4
20240221234506 75 28 1.0 6.0 0.00 0.00 0.00 64 1012.8
20240221233009 76 11 1.0 9.0 0.00 0.00 0.00 62 1012.5
20240221231505 76 97 2.0 8.0 0.00 0.00 0.00 62 1012.4
20240221230015 77 5 1.0 10.0 0.00 0.00 0.00 61 1012.6
20240221224504 77 302 3.0 10.0 0.00 0.00 0.00 62 1012.7
20240221223010 76 77 3.0 10.0 0.00 0.00 0.00 63 1012.9
20240221221504 76 235 2.0 10.0 0.00 0.00 0.00 64 1013.1
20240221220007 75 80 2.0 8.0 0.00 0.00 0.00 65 1013.3
20240221214505 75 49 3.0 12.0 0.00 0.00 0.00 65 1013.5
20240221213005 75 283 3.0 10.0 0.00 0.00 0.00 65 1013.7
20240221211505 74 349 1.0 9.0 0.00 0.00 0.00 66 1014.0
20240221210008 74 194 3.0 12.0 0.00 0.00 0.00 67 1014.2
20240221204505 73 128 3.0 10.0 0.00 0.00 0.00 67 1014.6
20240221203006 72 229 4.0 9.0 0.00 0.00 0.00 68 1014.9
20240221201507 72 107 6.0 12.0 0.00 0.00 0.00 70 1015.2
20240221200006 72 135 2.0 11.0 0.00 0.00 0.00 71 1015.6
20240221194505 71 331 3.0 11.0 0.00 0.00 0.00 74 1015.9
20240221193005 71 303 4.0 9.0 0.00 0.00 0.00 74 1016.4
20240221191514 71 142 3.0 11.0 0.00 0.00 0.00 72 1016.8
20240221190007 72 252 3.0 10.0 0.00 0.00 0.00 72 1017.1
20240221184504 72 235 3.0 12.0 0.00 0.00 0.00 71 1017.4
20240221183005 72 28 3.0 10.0 0.00 0.00 0.00 70 1017.5
20240221181515 71 78 5.0 12.0 0.00 0.00 0.00 71 1017.8
20240221180012 71 355 2.0 10.0 0.00 0.00 0.00 72 1018.3
20240221174505 71 204 3.0 11.0 0.00 0.00 0.00 71 1018.5
20240221173004 71 106 2.0 9.0 0.00 0.00 0.00 72 1018.8
20240221171505 70 331 3.0 9.0 0.00 0.00 0.00 72 1019.0
20240221170014 70 222 3.0 11.0 0.00 0.00 0.00 73 1019.1
20240221164505 69 276 4.0 11.0 0.00 0.00 0.00 73 1019.4
20240221163005 68 168 2.0 10.0 0.00 0.00 0.00 76 1019.5
20240221161513 67 184 3.0 9.0 0.00 0.00 0.00 76 1019.6
20240221160007 66 215 4.0 9.0 0.00 0.00 0.00 78 1019.8
20240221154505 65 248 4.0 11.0 0.00 0.00 0.00 79 1019.9
20240221153004 64 248 5.0 10.0 0.00 0.00 0.00 81 1019.8
20240221151505 64 204 4.0 9.0 0.00 0.00 0.00 82 1019.9
20240221150006 63 227 7.0 12.0 0.00 0.00 0.00 84 1019.9
20240221144504 62 221 5.0 12.0 0.00 0.00 0.00 84 1019.7
20240221143004 62 198 3.0 10.0 0.00 0.00 0.00 86 1019.8
20240221141504 61 209 3.0 6.0 0.00 0.00 0.00 86 1019.6
20240221140007 61 244 3.0 10.0 0.00 0.00 0.00 86 1019.6
20240221134504 61 189 2.0 12.0 0.00 0.00 0.00 87 1019.5
20240221133005 61 218 4.0 11.0 0.00 0.00 0.00 87 1019.6
20240221131505 61 234 3.0 8.0 0.00 0.00 0.00 87 1019.6
20240221130007 61 182 4.0 10.0 0.00 0.00 0.00 87 1019.6
20240221124505 61 208 3.0 9.0 0.00 0.00 0.00 87 1019.5
20240221123004 61 175 3.0 8.0 0.00 0.00 0.00 88 1019.5
20240221121504 61 221 5.0 12.0 0.00 0.00 0.00 87 1019.4
20240221120005 61 238 4.0 10.0 0.00 0.00 0.00 88 1019.4
20240221114504 61 254 4.0 10.0 0.00 0.00 0.00 88 1019.3
20240221113003 61 221 4.0 9.0 0.00 0.00 0.00 89 1019.3
20240221111503 61 202 3.0 10.0 0.00 0.00 0.00 89 1019.1
20240221110009 61 190 2.0 7.0 0.00 0.00 0.00 90 1019.1
20240221104504 61 222 3.0 8.0 0.00 0.00 0.00 90 1019.1
20240221103003 61 233 3.0 9.0 0.00 0.00 0.00 90 1019.1
20240221101504 61 247 4.0 11.0 0.00 0.00 0.00 90 1019.3
20240221100008 61 171 4.0 12.0 0.00 0.00 0.00 91 1019.2
20240221094510 61 159 2.0 8.0 0.00 0.00 0.00 92 1019.2
20240221093003 61 184 4.0 9.0 0.00 0.00 0.00 92 1019.3
20240221091503 61 178 3.0 7.0 0.00 0.00 0.00 92 1019.5
20240221090006 61 214 2.0 8.0 0.00 0.00 0.00 91 1019.7
20240221084504 61 163 0.0 7.0 0.00 0.00 0.00 91 1019.7
20240221083003 61 219 2.0 7.0 0.00 0.00 0.00 91 1020.0
20240221081506 61 296 1.0 5.0 0.00 0.00 0.00 91 1020.3
20240221080005 61 191 1.0 8.0 0.00 0.00 0.00 91 1020.3
20240221074503 61 163 2.0 8.0 0.00 0.00 0.00 91 1020.6
20240221073007 61 263 1.0 5.0 0.00 0.00 0.00 90 1020.6
20240221071503 60 43 0.0 3.0 0.00 0.00 0.00 90 1020.6
20240221070010 60 246 0.0 3.0 0.00 0.00 0.00 90 1020.6
20240221064506 60 93 1.0 4.0 0.00 0.00 0.00 90 1020.5
20240221063006 60 225 1.0 5.0 0.00 0.00 0.00 89 1020.6
20240221061506 60 105 0.0 3.0 0.00 0.00 0.00 89 1020.7
20240221060010 61 58 0.0 4.0 0.00 0.00 0.00 88 1020.8
20240221054506 61 69 1.0 5.0 0.00 0.00 0.00 87 1020.8
20240221053017 61 97 0.0 5.0 0.00 0.00 0.00 86 1020.8
20240221051505 62 86 1.0 8.0 0.00 0.00 0.00 84 1020.7
20240221050009 62 344 1.0 6.0 0.00 0.00 0.00 83 1020.8
20240221044506 62 102 2.0 5.0 0.00 0.00 0.00 81 1020.7
20240221043005 63 40 1.0 6.0 0.00 0.00 0.00 79 1020.5
20240221041506 63 67 2.0 7.0 0.00 0.00 0.00 77 1020.5
20240221040008 64 95 1.0 5.0 0.00 0.00 0.00 75 1020.5
20240221034511 65 102 3.0 9.0 0.00 0.00 0.00 73 1020.4
20240221033008 65 78 1.0 5.0 0.00 0.00 0.00 71 1020.2
20240221031510 65 69 1.0 7.0 0.00 0.00 0.00 70 1020.2
20240221030009 66 40 1.0 4.0 0.00 0.00 0.00 68 1020.1
20240221024506 66 63 1.0 3.0 0.00 0.00 0.00 66 1020.0
20240221023009 67 91 0.0 2.0 0.00 0.00 0.00 64 1020.0
20240221021508 67 51 0.0 3.0 0.00 0.00 0.00 63 1020.0
20240221020007 68 92 0.0 3.0 0.00 0.00 0.00 61 1020.0